Starlink 4445

operational
NORAD ID: 53474 Int'l Des: 2022-099 Owner: SPXS Country: US Constellation: starlink
LEOCIRCULARRETROGRADESSO

Starlink 4445について

説明を読み込み中...

リアルタイム位置

3D地球を読み込み中...

次回通過

高度履歴

Altitude vs Time

uPlot chart will show altitude changes over time

軌道要素

1 53474U 22099K 26062.30706606 .00000812 00000-0 67744-4 0 9992
2 53474 97.6018 183.9589 0004117 202.3941 157.7104 15.01262521195020
Epoch: Mar 3, 2026 • Age: 39 hours

現在のステータス

高度 562.8 km
速度 7.58 km/s
衛星直下点 8.78°N, 13.81°W
打ち上げ日 Aug 12, 2022
運用期間 3.5 years
タイプ internet

技術仕様

分類 Payload
質量 300.00 kg
乾燥質量 275.00 kg
総質量 300.00 kg
長さ 0.20 m
直径 2.80 m
スパン 9.00 m
形状 Box + pan
製造者 SPXS
バスタイプ Starlink
フェーズステータス In Orbit
所有者/国 SPXS/US

大規模コンステレーション

Loading constellations...